Weather History for Tacoma Narrows, WA

Change the Weather History Date:

Sunday, March 24, 2013

  Actual Average Record
Temperature  
Mean Temperature 43 °F -  
Max Temperature 53 °F 50 °F 64 °F (2014)
Min Temperature 34 °F 39 °F 34 °F (2008)
Degree Days  
Heating Degree Days 22    
Moisture  
Dew Point 30 °F    
Average Humidity 63    
Maximum Humidity 89    
Minimum Humidity 38    
Precipitation  
Precipitation 0.00 in - - ()
Sea Level Pressure  
Sea Level Pressure 30.23 in    
Wind  
Wind Speed 1 mph (North)    
Max Wind Speed 6 mph    
Max Gust Speed -    
Visibility 10 miles    
Events      
Averages and records for this station are not official NWS values.
T = Trace of Precipitation, MM = Missing Value Source: NWS Daily Summary

Daily Weather History Graph

Daily Weather History Graph

Search for Another Location

Airport:

Trip Planner

Search our weather history database for the weather conditions in past years. The results will help you decide how hot, cold, wet, or windy it might be!

Date:

Astronomy

Mar. 24, 2013 Rise Set
Actual Time 7:04 AM PDT 7:29 PM PDT
Civil Twilight 6:33 AM PDT 7:59 PM PDT
Nautical Twilight 5:57 AM PDT 8:36 PM PDT
Astronomical Twilight 5:20 AM PDT 9:13 PM PDT
Moon 4:55 PM PDT (3/24) 5:27 AM PDT (3/24)
Length of Visible Light 13h 25m
Length of Day
12h 24m
Waxing Gibbous, 92% of the Moon is Illuminated
Mar 24
Waxing Gibbous
Mar 27
Full
Apr 2
Last Quarter
Apr 10
New
Apr 18
First Quarter

Hourly Weather History & Observations

Time (PDT) Temp. Windchill Dew Point Humidity Pressure Visibility Wind Dir Wind Speed Gust Speed Precip Events Conditions
12:53 AM 37.9 °F - 32.0 °F 79% 30.30 in 10.0 mi Calm Calm - N/A   Clear
1:53 AM 37.0 °F - 32.0 °F 82% 30.30 in 10.0 mi Calm Calm - N/A   Clear
2:53 AM 36.0 °F - 33.1 °F 89% 30.30 in 10.0 mi Calm Calm - N/A   Clear
3:53 AM 35.1 °F - 30.9 °F 85% 30.30 in 10.0 mi Calm Calm - N/A   Clear
4:53 AM 35.1 °F - 30.0 °F 82% 30.29 in 10.0 mi Calm Calm - N/A   Clear
5:53 AM 34.0 °F - 30.0 °F 85% 30.28 in 10.0 mi Calm Calm - N/A   Clear
6:53 AM 34.0 °F 31.0 °F 30.0 °F 85% 30.29 in 9.0 mi NE 3.5 mph - N/A   Clear
7:53 AM 36.0 °F - 30.9 °F 82% 30.28 in 10.0 mi Calm Calm - N/A   Clear
8:53 AM 37.0 °F 34.5 °F 32.0 °F 82% 30.27 in 9.0 mi ENE 3.5 mph - N/A   Scattered Clouds
9:53 AM 39.0 °F 36.8 °F 30.0 °F 70% 30.27 in 10.0 mi NE 3.5 mph - N/A   Mostly Cloudy
10:53 AM 41.0 °F - 30.0 °F 65% 30.27 in 10.0 mi Calm Calm - N/A   Overcast
11:53 AM 45.0 °F 41.8 °F 28.0 °F 52% 30.26 in 10.0 mi North 5.8 mph - N/A   Mostly Cloudy
12:53 PM 45.0 °F - 28.0 °F 52% 30.25 in 10.0 mi Calm Calm - N/A   Overcast
1:53 PM 48.0 °F - 28.0 °F 46% 30.24 in 10.0 mi Calm Calm - N/A   Overcast
2:53 PM 48.9 °F - 26.1 °F 41% 30.22 in 10.0 mi NNE 3.5 mph - N/A   Overcast
3:53 PM 51.1 °F - 28.9 °F 43% 30.20 in 10.0 mi WNW 3.5 mph - N/A   Overcast
4:53 PM 51.1 °F - 28.9 °F 43% 30.18 in 10.0 mi NW 3.5 mph - N/A   Mostly Cloudy
5:53 PM 52.0 °F - 27.0 °F 38% 30.16 in 10.0 mi Calm Calm - N/A   Overcast
6:53 PM 50.0 °F - 27.0 °F 41% 30.14 in 10.0 mi NNW 3.5 mph - N/A   Overcast
7:53 PM 48.0 °F - 27.0 °F 44% 30.13 in 10.0 mi Calm Calm - N/A   Overcast
8:53 PM 46.9 °F - 30.0 °F 52% 30.14 in 10.0 mi NNW 3.5 mph - N/A   Overcast
9:53 PM 46.0 °F - 28.9 °F 51% 30.14 in 10.0 mi Calm Calm - N/A   Clear
10:53 PM 45.0 °F 42.6 °F 30.9 °F 58% 30.14 in 10.0 mi NNE 4.6 mph - N/A   Mostly Cloudy
11:53 PM 44.1 °F - 30.0 °F 58% 30.13 in 10.0 mi Calm Calm - N/A   Clear